Location: Washington
(38.8950°N, 77.0370°W)
Time: 16:49:53
(UTC-04:00)

Tiangong 1 - Visible Passes

Search period start: 25 June 2017 00:00
Search period end: 05 July 2017 00:00
Orbit: 321 x 344 km, 42.8° (Epoch: 25 June)

Date Brightness Start Highest point End Pass type
(mag) Time Alt. Az. Time Alt. Az. Time Alt. Az.
25 Jun 1.7 21:16:17 10° W 21:19:02 49° NNW 21:21:45 10° ENE visible
25 Jun 2.2 22:52:18 10° WNW 22:54:54 35° N 22:55:09 34° NNE visible
26 Jun 2.3 21:35:53 10° WNW 21:38:30 35° N 21:41:07 10° ENE visible
26 Jun 2.7 23:11:40 10° WNW 23:13:24 30° NW 23:13:24 30° NW visible
27 Jun 2.2 21:55:21 10° WNW 21:57:59 35° N 22:00:25 11° ENE visible
27 Jun 3.7 23:30:56 10° WNW 23:31:32 15° WNW 23:31:32 15° WNW visible
28 Jun 1.6 22:14:39 10° WNW 22:17:22 47° NNE 22:18:29 28° ENE visible
29 Jun 0.7 22:33:50 10° WNW 22:36:31 80° WNW 22:36:31 80° WNW visible
30 Jun 1.6 21:17:27 10° WNW 21:20:12 46° NNE 21:22:54 10° E visible
30 Jun 2.7 22:53:08 10° W 22:54:30 23° W 22:54:30 23° W visible
01 Jul 0.7 21:36:34 10° WNW 21:39:24 87° NNE 21:41:21 18° ESE visible
02 Jul 1.5 21:55:45 10° W 21:58:24 38° SSW 21:59:18 28° SSE visible
03 Jul 3.0 22:15:27 10° WSW 22:17:13 15° SW 22:17:16 15° SW visible
